Location: Lake of the Woods (North-East)
(49.6672°N, 94.8656°W)
Time: 15:37:35
(UTC-05:00)

ISS - All Passes

Search period start: 30 March 2017 00:00
Search period end: 09 April 2017 00:00
Orbit: 399 x 409 km, 51.6° (Epoch: 31 March)

Date Brightness Start Highest point End Pass type
(mag) Time Alt. Az. Time Alt. Az. Time Alt. Az.
30 Mar - 00:03:50 10° WNW 00:07:06 62° N 00:10:22 10° E night (unlit)
30 Mar - 01:40:21 10° WNW 01:43:35 55° SSW 01:46:49 10° SE night (unlit)
30 Mar - 03:18:04 10° WSW 03:19:30 12° SW 03:20:56 10° SSW night (unlit)
30 Mar - 19:59:23 10° SSW 20:01:54 21° SE 20:04:25 10° E daylight
30 Mar - 21:34:44 10° WSW 21:38:01 83° SSE 21:41:18 10° ENE visible
30 Mar - 23:11:22 10° W 23:14:37 58° N 23:17:53 10° E visible
31 Mar - 00:47:56 10° WNW 00:51:13 80° SSW 00:54:31 10° ESE night (unlit)
31 Mar - 02:24:51 10° W 02:27:20 20° SW 02:29:49 10° S night (unlit)
31 Mar - 19:08:10 10° SSE 19:09:43 13° SE 19:11:15 10° ESE daylight
31 Mar - 20:42:25 10° SW 20:45:38 57° SSE 20:48:51 10° ENE visible
31 Mar - 22:18:53 10° W 22:22:08 61° N 22:25:24 10° ENE visible
31 Mar - 23:55:30 10° WNW 23:58:48 77° NNE 00:02:05 10° ESE visible
01 Apr - 01:32:08 10° W 01:35:06 31° SSW 01:38:03 10° SSE night (unlit)
01 Apr - 19:50:15 10° SW 19:53:18 37° SSE 19:56:21 10° E daylight
01 Apr - 21:26:24 10° W 21:29:39 70° NNW 21:32:56 10° ENE visible
01 Apr - 23:03:03 10° WNW 23:06:19 64° N 23:09:36 10° E visible
02 Apr - 00:39:36 10° WNW 00:42:46 48° SSW 00:45:58 10° SE night (unlit)
02 Apr - 02:18:06 10° SW 02:18:37 10° SW 02:19:07 10° SW night (unlit)
02 Apr - 18:58:19 10° SSW 19:01:00 24° SE 19:03:42 10° E daylight
02 Apr - 20:33:55 10° WSW 20:37:12 89° NNW 20:40:29 10° ENE visible
02 Apr - 22:10:34 10° WNW 22:13:49 59° N 22:17:04 10° E visible
02 Apr - 23:47:06 10° WNW 23:50:23 72° SSW 23:53:39 10° ESE visible
03 Apr - 01:24:12 10° W 01:26:26 17° SW 01:28:39 10° S night (unlit)
03 Apr - 18:06:49 10° S 18:08:46 15° SE 18:10:44 10° ESE daylight
03 Apr - 19:41:31 10° WSW 19:44:46 66° SSE 19:48:01 10° ENE daylight
03 Apr - 21:18:03 10° W 21:21:17 59° N 21:24:33 10° ENE visible
03 Apr - 22:54:38 10° WNW 22:57:56 84° NNE 23:01:13 10° ESE visible
04 Apr - 00:31:20 10° W 00:34:10 27° SW 00:37:00 10° SSE night (unlit)
04 Apr - 18:49:15 10° SW 18:52:21 43° SSE 18:55:29 10° ENE daylight
04 Apr - 20:25:31 10° W 20:28:46 66° N 20:32:02 10° ENE visible
04 Apr - 22:02:10 10° WNW 22:05:26 68° N 22:08:42 10° E visible
04 Apr - 23:38:43 10° W 23:41:50 41° SSW 23:44:57 10° SE visible
05 Apr - 17:57:11 10° SSW 18:00:01 28° SE 18:02:51 10° E daylight
05 Apr - 19:33:00 10° WSW 19:36:15 82° NNW 19:39:32 10° ENE daylight
05 Apr - 21:09:39 10° WNW 21:12:54 60° N 21:16:09 10° E visible
05 Apr - 22:46:10 10° WNW 22:49:26 63° SSW 22:52:41 10° ESE visible
06 Apr - 00:23:31 10° WSW 00:25:24 14° SW 00:27:17 10° S night (unlit)
06 Apr - 17:05:28 10° S 17:07:43 18° SE 17:09:59 10° E daylight
06 Apr - 18:40:31 10° WSW 18:43:46 74° SSE 18:47:02 10° ENE daylight
06 Apr - 20:17:06 10° W 20:20:21 58° N 20:23:35 10° E daylight
06 Apr - 21:53:40 10° WNW 21:56:57 89° SSW 22:00:14 10° ESE visible
06 Apr - 23:30:28 10° W 23:33:08 23° SW 23:35:48 10° SSE visible
07 Apr - 16:14:43 10° SSE 16:15:29 11° SE 16:16:15 10° ESE daylight
07 Apr - 17:48:10 10° SW 17:51:19 50° SSE 17:54:30 10° ENE daylight
07 Apr - 19:24:32 10° W 19:27:46 63° N 19:31:01 10° ENE daylight
07 Apr - 21:01:09 10° WNW 21:04:26 72° NNE 21:07:42 10° E visible
07 Apr - 22:37:44 10° W 22:40:47 36° SSW 22:43:49 10° SE visible
08 Apr - 16:55:58 10° SSW 16:58:55 32° SSE 17:01:52 10° E daylight
08 Apr - 18:31:57 10° W 18:35:13 76° NNW 18:38:29 10° ENE daylight
08 Apr - 20:08:37 10° WNW 20:11:51 61° N 20:15:07 10° E daylight
08 Apr - 21:45:08 10° WNW 21:48:21 55° SSW 21:51:34 10° SE visible
08 Apr - 23:22:50 10° WSW 23:24:15 12° SW 23:25:40 10° SSW visible
